Time,TemperatureF,DewpointF,PressureIn,WindDirection,WindDirectionDegrees,WindSpeedMPH,WindSpeedGustMPH,Humidity,HourlyPrecipIn,Conditions,Clouds,dailyrainin,SolarRadiationWatts/m^2,SoftwareType,DateUTC
2013-07-08 00:11:00,56.0,45.0,-100.00,SSE,168,6.0,24.0,66,0.00,,,0.05,0.000000,,2013-07-08 06:11:00,
2013-07-08 00:22:00,56.0,45.0,-100.00,SSE,168,6.0,24.0,66,0.00,,,0.05,0.000000,,2013-07-08 06:22:00,
2013-07-08 00:33:00,56.0,45.0,-100.00,SSE,168,6.0,24.0,66,0.00,,,0.05,0.000000,,2013-07-08 06:33:00,
2013-07-08 00:42:00,56.0,45.0,-100.00,SSE,168,6.0,24.0,66,0.00,,,0.05,0.000000,,2013-07-08 06:42:00,
2013-07-08 00:52:00,54.0,44.0,-100.00,ESE,118,3.0,14.0,70,0.00,,,0.05,0.000000,,2013-07-08 06:52:00,
2013-07-08 01:12:00,54.0,44.0,-100.00,ESE,118,3.0,14.0,70,0.00,,,0.05,0.000000,,2013-07-08 07:12:00,
2013-07-08 01:22:00,54.0,44.0,-100.00,ESE,118,3.0,14.0,70,0.00,,,0.05,0.000000,,2013-07-08 07:22:00,
2013-07-08 01:34:00,54.0,44.0,-100.00,ESE,118,3.0,14.0,70,0.00,,,0.05,0.000000,,2013-07-08 07:34:00,
2013-07-08 01:44:00,54.0,44.0,-100.00,ESE,118,3.0,14.0,70,0.00,,,0.05,0.000000,,2013-07-08 07:44:00,
2013-07-08 01:52:00,52.0,44.0,-100.00,SE,135,2.0,5.0,75,0.00,,,0.05,0.000000,,2013-07-08 07:52:00,
2013-07-08 02:11:00,52.0,44.0,-100.00,SE,135,2.0,5.0,75,0.00,,,0.05,0.000000,,2013-07-08 08:11:00,
2013-07-08 02:22:00,52.0,44.0,-100.00,SE,135,2.0,5.0,75,0.00,,,0.05,0.000000,,2013-07-08 08:22:00,
2013-07-08 02:33:00,52.0,44.0,-100.00,SE,135,2.0,5.0,75,0.00,,,0.05,0.000000,,2013-07-08 08:33:00,
2013-07-08 02:42:00,52.0,44.0,-100.00,SE,135,2.0,5.0,75,0.00,,,0.05,0.000000,,2013-07-08 08:42:00,
2013-07-08 02:52:00,48.0,44.0,-100.00,ESE,107,1.0,5.0,85,0.00,,,0.05,0.000000,,2013-07-08 08:52:00,
2013-07-08 03:11:00,48.0,44.0,-100.00,ESE,107,1.0,5.0,85,0.00,,,0.05,0.000000,,2013-07-08 09:11:00,
2013-07-08 03:22:00,48.0,44.0,-100.00,ESE,107,1.0,5.0,85,0.00,,,0.05,0.000000,,2013-07-08 09:22:00,
2013-07-08 03:34:00,48.0,44.0,-100.00,ESE,107,1.0,5.0,85,0.00,,,0.05,0.000000,,2013-07-08 09:34:00,
2013-07-08 03:43:00,48.0,44.0,-100.00,ESE,107,1.0,5.0,85,0.00,,,0.05,0.000000,,2013-07-08 09:43:00,
2013-07-08 03:52:00,45.0,43.0,-100.00,East,91,3.0,6.0,91,0.00,,,0.05,0.000000,,2013-07-08 09:52:00,
2013-07-08 04:11:00,45.0,43.0,-100.00,East,91,3.0,6.0,91,0.00,,,0.05,0.000000,,2013-07-08 10:11:00,
2013-07-08 04:22:00,45.0,43.0,-100.00,East,91,3.0,6.0,91,0.00,,,0.05,0.000000,,2013-07-08 10:22:00,
2013-07-08 04:34:00,45.0,43.0,-100.00,East,91,3.0,6.0,91,0.00,,,0.05,0.000000,,2013-07-08 10:34:00,
2013-07-08 04:43:00,45.0,43.0,-100.00,East,91,3.0,6.0,91,0.00,,,0.05,0.000000,,2013-07-08 10:43:00,
2013-07-08 04:52:00,44.0,42.0,-100.00,ENE,78,3.0,8.0,93,0.00,,,0.05,0.000000,,2013-07-08 10:52:00,
2013-07-08 05:22:00,44.0,42.0,-100.00,ENE,78,3.0,8.0,93,0.00,,,0.05,0.000000,,2013-07-08 11:22:00,
2013-07-08 05:33:00,44.0,42.0,-100.00,ENE,78,3.0,8.0,93,0.00,,,0.05,0.000000,,2013-07-08 11:33:00,
2013-07-08 05:43:00,44.0,42.0,-100.00,ENE,78,3.0,8.0,93,0.00,,,0.05,0.000000,,2013-07-08 11:43:00,
2013-07-08 05:52:00,44.0,42.0,-100.00,East,86,2.0,6.0,93,0.00,,,0.05,1.000000,,2013-07-08 11:52:00,
2013-07-08 06:11:00,44.0,42.0,-100.00,East,86,2.0,6.0,93,0.00,,,0.05,1.000000,,2013-07-08 12:11:00,
2013-07-08 06:22:00,44.0,42.0,-100.00,East,86,2.0,6.0,93,0.00,,,0.05,1.000000,,2013-07-08 12:22:00,
2013-07-08 06:33:00,44.0,42.0,-100.00,East,86,2.0,6.0,93,0.00,,,0.05,1.000000,,2013-07-08 12:33:00,
2013-07-08 06:43:00,44.0,42.0,-100.00,East,86,2.0,6.0,93,0.00,,,0.05,1.000000,,2013-07-08 12:43:00,
2013-07-08 06:52:00,47.0,44.0,-100.00,East,94,3.0,5.0,88,0.00,,,0.05,43.000000,,2013-07-08 12:52:00,
2013-07-08 07:33:00,47.0,44.0,-100.00,East,94,3.0,5.0,88,0.00,,,0.05,43.000000,,2013-07-08 13:33:00,
2013-07-08 07:42:00,47.0,44.0,-100.00,East,94,3.0,5.0,88,0.00,,,0.05,43.000000,,2013-07-08 13:42:00,
2013-07-08 07:52:00,55.0,46.0,-100.00,ENE,70,2.0,5.0,72,0.00,,,0.05,210.000000,,2013-07-08 13:52:00,
2013-07-08 08:33:00,55.0,46.0,-100.00,ENE,70,2.0,5.0,72,0.00,,,0.05,210.000000,,2013-07-08 14:33:00,
2013-07-08 08:43:00,55.0,46.0,-100.00,ENE,70,2.0,5.0,72,0.00,,,0.05,210.000000,,2013-07-08 14:43:00,
2013-07-08 08:52:00,58.0,48.0,-100.00,SW,219,1.0,4.0,69,0.00,,,0.05,380.000000,,2013-07-08 14:52:00,
2013-07-08 09:33:00,58.0,48.0,-100.00,SW,219,1.0,4.0,69,0.00,,,0.05,380.000000,,2013-07-08 15:33:00,
2013-07-08 09:43:00,58.0,48.0,-100.00,SW,219,1.0,4.0,69,0.00,,,0.05,380.000000,,2013-07-08 15:43:00,
2013-07-08 09:52:00,63.0,49.0,-100.00,NW,324,2.0,5.0,61,0.00,,,0.05,562.000000,,2013-07-08 15:52:00,
2013-07-08 10:22:00,63.0,49.0,-100.00,NW,324,2.0,5.0,61,0.00,,,0.05,562.000000,,2013-07-08 16:22:00,
2013-07-08 10:33:00,63.0,49.0,-100.00,NW,324,2.0,5.0,61,0.00,,,0.05,562.000000,,2013-07-08 16:33:00,
2013-07-08 10:43:00,63.0,49.0,-100.00,NW,324,2.0,5.0,61,0.00,,,0.05,562.000000,,2013-07-08 16:43:00,
2013-07-08 10:52:00,67.0,50.0,-100.00,WNW,292,5.0,9.0,55,0.00,,,0.05,726.000000,,2013-07-08 16:52:00,
2013-07-08 11:25:00,67.0,50.0,-100.00,WNW,292,5.0,9.0,55,0.00,,,0.05,726.000000,,2013-07-08 17:25:00,
2013-07-08 11:35:00,67.0,50.0,-100.00,WNW,292,5.0,9.0,55,0.00,,,0.05,726.000000,,2013-07-08 17:35:00,
2013-07-08 11:44:00,67.0,50.0,-100.00,WNW,292,5.0,9.0,55,0.00,,,0.05,726.000000,,2013-07-08 17:44:00,
2013-07-08 11:52:00,71.0,51.0,-100.00,WNW,296,5.0,9.0,50,0.00,,,0.05,845.000000,,2013-07-08 17:52:00,
2013-07-08 12:27:00,71.0,51.0,-100.00,WNW,296,5.0,9.0,50,0.00,,,0.05,845.000000,,2013-07-08 18:27:00,
2013-07-08 12:36:00,71.0,51.0,-100.00,WNW,296,5.0,9.0,50,0.00,,,0.05,845.000000,,2013-07-08 18:36:00,
2013-07-08 12:45:00,71.0,51.0,-100.00,WNW,296,5.0,9.0,50,0.00,,,0.05,845.000000,,2013-07-08 18:45:00,
2013-07-08 12:52:00,75.0,50.0,-100.00,West,269,6.0,15.0,41,0.00,,,0.05,915.000000,,2013-07-08 18:52:00,
2013-07-08 13:36:00,75.0,50.0,-100.00,West,269,6.0,15.0,41,0.00,,,0.05,915.000000,,2013-07-08 19:36:00,
2013-07-08 13:45:00,75.0,50.0,-100.00,West,269,6.0,15.0,41,0.00,,,0.05,915.000000,,2013-07-08 19:45:00,
2013-07-08 13:52:00,71.0,43.0,-100.00,WSW,240,8.0,20.0,36,0.00,,,0.05,592.000000,,2013-07-08 19:52:00,
2013-07-08 14:26:00,71.0,43.0,-100.00,WSW,240,8.0,20.0,36,0.00,,,0.05,592.000000,,2013-07-08 20:26:00,
2013-07-08 14:36:00,71.0,43.0,-100.00,WSW,240,8.0,20.0,36,0.00,,,0.05,592.000000,,2013-07-08 20:36:00,
2013-07-08 14:45:00,71.0,43.0,-100.00,WSW,240,8.0,20.0,36,0.00,,,0.05,592.000000,,2013-07-08 20:45:00,
2013-07-08 14:52:00,76.0,41.0,-100.00,WSW,238,11.0,25.0,29,0.00,,,0.05,937.000000,,2013-07-08 20:52:00,
2013-07-08 15:26:00,76.0,41.0,-100.00,WSW,238,11.0,25.0,29,0.00,,,0.05,937.000000,,2013-07-08 21:26:00,
2013-07-08 15:37:00,76.0,41.0,-100.00,WSW,238,11.0,25.0,29,0.00,,,0.05,937.000000,,2013-07-08 21:37:00,
2013-07-08 15:45:00,76.0,41.0,-100.00,WSW,238,11.0,25.0,29,0.00,,,0.05,937.000000,,2013-07-08 21:45:00,
2013-07-08 16:18:00,76.0,41.0,-100.00,WSW,244,11.0,23.0,29,0.00,,,0.05,811.000000,,2013-07-08 22:18:00,
2013-07-08 16:26:00,76.0,41.0,-100.00,WSW,244,11.0,23.0,29,0.00,,,0.05,811.000000,,2013-07-08 22:26:00,
2013-07-08 16:37:00,76.0,41.0,-100.00,WSW,244,11.0,23.0,29,0.00,,,0.05,811.000000,,2013-07-08 22:37:00,
2013-07-08 16:46:00,76.0,41.0,-100.00,WSW,244,11.0,23.0,29,0.00,,,0.05,811.000000,,2013-07-08 22:46:00,
2013-07-08 16:52:00,76.0,41.0,-100.00,SW,235,13.0,24.0,28,0.00,,,0.01,656.000000,,2013-07-08 22:52:00,
2013-07-08 17:27:00,76.0,41.0,-100.00,SW,235,13.0,24.0,28,0.00,,,0.01,656.000000,,2013-07-08 23:27:00,
2013-07-08 17:37:00,76.0,41.0,-100.00,SW,235,13.0,24.0,28,0.00,,,0.01,656.000000,,2013-07-08 23:37:00,
2013-07-08 18:37:00,76.0,41.0,-100.00,WSW,239,13.0,25.0,29,0.00,,,0.01,581.000000,,2013-07-09 00:37:00,
2013-07-08 18:52:00,74.0,43.0,-100.00,SW,232,14.0,27.0,33,0.00,,,0.01,400.000000,,2013-07-09 00:52:00,
2013-07-08 19:35:00,74.0,43.0,-100.00,SW,232,14.0,27.0,33,0.00,,,0.01,400.000000,,2013-07-09 01:35:00,
2013-07-08 19:47:00,74.0,43.0,-100.00,SW,232,14.0,27.0,33,0.00,,,0.01,400.000000,,2013-07-09 01:47:00,
2013-07-08 20:25:00,68.0,46.0,-100.00,WSW,242,9.0,21.0,46,0.00,,,0.01,164.000000,,2013-07-09 02:25:00,
2013-07-08 20:37:00,68.0,46.0,-100.00,WSW,242,9.0,21.0,46,0.00,,,0.01,164.000000,,2013-07-09 02:37:00,
2013-07-08 20:46:00,68.0,46.0,-100.00,WSW,242,9.0,21.0,46,0.00,,,0.01,164.000000,,2013-07-09 02:46:00,
2013-07-08 21:17:00,68.0,43.0,-100.00,SW,230,7.0,14.0,40,0.00,,,0.01,70.000000,,2013-07-09 03:17:00,
2013-07-08 21:27:00,68.0,43.0,-100.00,SW,230,7.0,14.0,40,0.00,,,0.01,70.000000,,2013-07-09 03:27:00,
2013-07-08 21:36:00,68.0,43.0,-100.00,SW,230,7.0,14.0,40,0.00,,,0.01,70.000000,,2013-07-09 03:36:00,
2013-07-08 21:52:00,63.0,42.0,-100.00,NNE,26,1.0,12.0,46,0.00,,,0.00,2.000000,,2013-07-09 03:52:00,
2013-07-08 22:11:00,63.0,42.0,-100.00,NNE,26,1.0,12.0,46,0.00,,,0.00,2.000000,,2013-07-09 04:11:00,
2013-07-08 22:22:00,63.0,42.0,-100.00,NNE,26,1.0,12.0,46,0.00,,,0.00,2.000000,,2013-07-09 04:22:00,
2013-07-08 22:33:00,63.0,42.0,-100.00,NNE,26,1.0,12.0,46,0.00,,,0.00,2.000000,,2013-07-09 04:33:00,
2013-07-08 22:42:00,63.0,42.0,-100.00,NNE,26,1.0,12.0,46,0.00,,,0.00,2.000000,,2013-07-09 04:42:00,
2013-07-08 22:52:00,62.0,42.0,-100.00,East,79,3.0,6.0,47,0.00,,,0.00,0.000000,,2013-07-09 04:52:00,
2013-07-08 23:11:00,62.0,42.0,-100.00,East,79,3.0,6.0,47,0.00,,,0.00,0.000000,,2013-07-09 05:11:00,
2013-07-08 23:22:00,62.0,42.0,-100.00,East,79,3.0,6.0,47,0.00,,,0.00,0.000000,,2013-07-09 05:22:00,
2013-07-08 23:33:00,62.0,42.0,-100.00,East,79,3.0,6.0,47,0.00,,,0.00,0.000000,,2013-07-09 05:33:00,
2013-07-08 23:42:00,62.0,42.0,-100.00,East,79,3.0,6.0,47,0.00,,,0.00,0.000000,,2013-07-09 05:42:00,
2013-07-08 23:52:00,55.0,42.0,-100.00,East,82,4.0,7.0,61,-99.99,,,0.00,0.000000,,2013-07-09 05:52:00,